Вернуться в каталог

STARLINK-5585

АктивенСвязьVLEO
NORAD 57333·PAYLOAD·🇺🇸 United States

Запущен Jul 16, 2023 с Cape Canaveral Space Force Station

Loading…

Ближайшие Пролёты (ближайшие 24 часа)

TLE

СвежийSource: CelesTrak SupGP

Эпоха: Sep 14, 2026, 21:30 UTC

1 57333C 23099F   26257.89631944  .00028690  00000+0  10394-2 0  2570
2 57333  42.9993 263.8365 0001528 262.9410  90.7735 15.27555459    12

Отслеживайте STARLINK-5585 в реальном времени с AllMySat

Download on the App Store